IP工具

IP地址信息

as自治系统数

全球域名

ip转换

缅甸as自治系统、Burma自治系统as、缅甸分配自治系统号码数

该页面显示是缅甸全球所有as自治系统号码数据。自治系统号码数据来自世界asn分配中心数据系统,准确率高,每天会自动 同步国际信息,最新更新时间是:2024-06-13,截止到当天,全球一共分配了: 191491 个as自治系统号码,缅甸所分配的as自治系统号码数是:150 个! 占总as自治系统比:0.078%,所分配自治系统总数全球排行:72 位!下载缅甸as自治系统号码数据 TXT格式  file下载

排序 as自治系统号码 注册机构 分配IP个数 登记时间
1 AS132167 OML-MM OOREDOO MYANMAR, MM 28,928个 20130917
2 AS136255 TIMCL-AS-AP Telecom International Myanmar Co., Ltd, MM 26,624个 19700101
3 AS9988 MPT-AP Myanma Posts and Telecommunications, MM 24,576个 20000426
4 AS133385 ATOMMYANMAR-AS-AP Atom Myanmar Limited, MM 24,064个 20140224
5 AS131322 YTCL-AS-AP Yatanarpon Teleport Company Limited, MM 17,408个 20110614
6 AS18399 YTCL-AS-AP Yatanarpon Teleport Company Limited, MM 10,240个 20021104
7 AS133524 GTCL-AS-AP Global Technology Co., Ltd., MM 8,448个 20140606
8 AS58952 FRONTIIRCOLTD-MM Frontiir Co. Ltd, MM 7,168个 20130702
9 AS136480 MMUNILINK-AS-AP Myanmar Unilink Communication Company Limited, MM 6,144个 19700101
10 AS134739 AGBC-AS-AP AGB Communication Co.Ltd, MM 5,888个 19700101
11 AS135300 MBTCL-AS-AP Myanmar Broadband Telecom Co., Ltd, MM 5,632个 19700101
12 AS133384 GTCL-AS-AP Global Technology Co., Ltd., MM 4,096个 20140219
13 AS136975 GNET-AS-AP Global Technology, MM 4,096个 19700101
14 AS45558 MPT-MM-AS-AP MYANMA POSTS AND TELECOMMUNICATIONS, MM 3,584个 20081202
15 AS134840 MCCL-AS-AP Myanmar Country Co., Ltd., MM 3,328个 19700101
16 AS135371 FORTUNEINTERNATIONAL-AS-AP Fortune Broadband, MM 3,072个 19700101
17 AS136442 OCEANWAVE-AS-AP Ocean Wave Communication Co., Ltd, MM 3,072个 19700101
18 AS135307 GTMH-AS-AP Golden TMH Telecom Co. Ltd, MM 2,304个 19700101
19 AS134736 NMCL-AS-AP NTT MYANMAR CO., LTD., MM 2,048个 19700101
20 AS134976 MATL-AS-AP Myint & Associates Telecommunications Ltd, MM 2,048个 19700101
21 AS135427 MYANMARNETWORK-AS-AP Myanmar Network Company Limited, MM 2,048个 19700101
22 AS135433 CGCL-AS-AP Connect Gateway Company Limited, MM 2,048个 19700101
23 AS135529 ITPCL-AS-AP Interlink Telecom Public Company Limited, TH 2,048个 19700101
24 AS132100 MSN-AS-AP Myanmar Speed Net Co.,Ltd, MM 2,048个 19700101
25 AS132344 STMCL-AS-AP SEANET, MM 2,048个 19700101
26 AS136168 CAMPANA-AS-AP Campana MYTHIC Co. Ltd., MM 2,048个 19700101
27 AS136474 MGTL-AS-AP Marga Global Telecom Limited, MM 2,048个 19700101
28 AS136780 MIHL-AS-AP MYANMAR INFORMATION HIGHWAY LIMITED, MM 2,048个 19700101
29 AS139719 YARCHANG-AS-AP Yar Chang Company Limited, MM 2,048个 19700101
30 AS135405 TMHTTWTL-AS-AP WELINK, MM 1,792个 19700101
31 AS131275 LBPL-AS-AP Logon Broadband Pvt. Limited, PK 1,792个 19700101
32 AS141216 GREATGOLDENHORSE-AS-AP GREAT GOLDEN HORSE COMPANY LIMITED, MM 1,792个 19700101
33 AS132148 HTI-AS-AP HORIZON TELECOM INTERNATIONAL COMPANY LIMITED, MM 1,536个 19700101
34 AS136210 ITSPECTRUM-AS-AP IT Spectrum Company Limited, MM 1,536个 19700101
35 AS137503 SPIDERNETCOLTD-AS-AP Spidernet Co.,Ltd, KH 1,536个 19700101
36 AS142423 MBLCC-AS-AP Myanmar Bee Live Communication Co.,Ltd, MM 1,536个 19700101
37 AS150692 GD2CL-AS-AP Golden Dragon 2000, MM 1,536个 19700101
38 AS151606 MSPACL-AS-AP MYANMAR SHWE PYI AYE COMPANY LIMITED, MM 1,536个 19700101
39 AS136465 INFORMATIONTECHNOLOGYCYBERSECURITY-AS-AP Dept. of Information Technology & Cyber Security, MM 1,280个 19700101
40 AS137893 SURVEILLANCE-AS-AP SURVEILLANCE AUSTRALIA PTY. LTD., AU 1,280个 19700101
41 AS138168 APN-AS-AP MyanmarAPN, MM 1,280个 19700101
42 AS151341 THENEXTSUCCESS-AS-AP The Next Success, MM 1,280个 19700101
43 AS63852 FMG-MM Myanmar Net, MM 1,024个 20141112
44 AS134105 STLMC-AS-AP Shwe Than Lwin Media Co.,Ltd., MM 1,024个 20150316
45 AS63998 KMTCL-MM Kinetic Myanmar Technology, MM 1,024个 20150622
46 AS134405 DATASERVICESPACIFIC-AS-AP Data Services Pacific, NC 1,024个 19700101
47 AS134714 ETPCL-AS-AP Elite Telecom Public Company Limited, MM 1,024个 19700101
48 AS135567 APL-AS-AP AirMax Private Limited, PK 1,024个 19700101
49 AS132037 EMS-AS-AP Enterprise Managed Services Sdn. Bhd., MY 1,024个 19700101
50 AS136137 TERABITWAVE-AS-AP Terabit Wave Company Limited, MM 1,024个 19700101
51 AS136613 AYEYARWADYBANK-AS-AP Ayeyarwady Bank, MM 1,024个 19700101
52 AS136617 FTCL-AS-AP Fortune Telecom Company Limited, MM 1,024个 19700101
53 AS136783 NETCORE-AS-AP Spectrum Life Company Limited, MM 1,024个 19700101
54 AS136786 I-BEAM-AS-AP Information Beam Company Limited, MM 1,024个 19700101
55 AS136919 FACE24COLTD-AS-AP FACE24 Co.,Ltd, MM 1,024个 19700101
56 AS136952 NETCORE-AS-AP Spectrum Life Company Limited, MM 1,024个 19700101
57 AS137431 RPCL-AS-AP ZORRO RITZ PUBLIC COMPANY LIMITED, MM 1,024个 19700101
58 AS137560 GMBECL-AS-AP Golden Myanmar Business Exchange Co. Ltd, MM 1,024个 19700101
59 AS137878 GOLDENET-AS-AP GOLDENET, MM 1,024个 19700101
60 AS134603 MAHDIINTERNET-AS-AP Mahdi Internet, BD 1,024个 19700101
61 AS138167 TRUENET-AS-AP TrueNET, MM 1,024个 19700101
62 AS138684 MANAULINKS-AS-AP ManauLinks Co.,Ltd., MM 1,024个 19700101
63 AS139871 TTACCL-AS-AP TONLE, KH 1,024个 19700101
64 AS149024 , 1,024个 19700101
65 AS150797 GCL-AS-AP GIGA-NET, MM 1,024个 19700101
66 AS137955 MMIX-AS-AP Myanmar Internet Exchange, MM 768个 19700101
67 AS142644 LINKFAST-AS-AP Link Fast Company Limited, MM 768个 19700101
68 AS149810 ACL-AS-AP AnyNet, MM 768个 19700101
69 AS139620 MTNPCL-AS-AP MYANMAR TELECOMMUNICATION NETWORK PUBLIC COMPANY LIMITED, MM 512个 19700101
70 AS135325 EWSDSNETWORKSINC-AS-AP EWS DS Networks Inc, PH 512个 19700101
71 AS136177 YOMABANKLIMITED-AS-AP Yoma Bank Limited, MM 512个 19700101
72 AS137826 ASTCL-AS-AP AST SYSTEM TECHNOLOGY COMPANY LIMITED, MM 512个 19700101
73 AS137861 MWT-AS-AP Myanmar World Distribution Telecommunication Company Limited, MM 512个 19700101
74 AS137891 BETHEFIRST-AS-AP Be The First, MM 512个 19700101
75 AS138401 , 512个 19700101
76 AS138634 MSCL-AS-AP MYNET SOLUTIONS COMPANY LIMITED, MM 512个 19700101
77 AS138656 GT-BROADBAND-AS-AP WELINK, MM 512个 19700101
78 AS139051 AUNGGABAR-AS-AP AUNG GABAR COMPANY LIMITED, MM 512个 19700101
79 AS139071 MNCL-AS-AP MK Networks Co., Ltd., MM 512个 19700101
80 AS139595 HTIN-AS-AP HTIN HTIN NETWORK COMPANY LIMITED, MM 512个 19700101
81 AS139698 , 512个 19700101
82 AS139711 KBZBANK-AS-AP KANBAWZA BANK LIMITED, MM 512个 19700101
83 AS139766 PROTOCOL-AS-AP Protocol Technologies Co.,Ltd ta KNET, MM 512个 19700101
84 AS139804 REDPALM-AS-AP RED PALM COMPANY LIMITED, MM 512个 19700101
85 AS139849 ROYALESPRIT-AS-AP Royal Esprit Company Limited, MM 512个 19700101
86 AS140091 SHWE-AS-AP SHWE MAHAR MAE KHONG INDUSTRIAL COMPANY LIMITED, MM 512个 19700101
87 AS140552 CBBANK-AS-AP Co-operative Bank Public Company Limited, MM 512个 19700101
88 AS140617 TPTNET-AS-AP THAN PHYO THU MINING COMPANY LIMITED, MM 512个 19700101
89 AS141015 MYANMARLINK-AS-AP Myanmar Link Telecommunication Ltd, MM 512个 19700101
90 AS141236 MCDC-AS-AP Mandalay City Development Committee, MM 512个 19700101
91 AS149038 UCGCL-AS-AP UNIQUE COMM GROUP COMPANY LIMITED, MM 512个 19700101
92 AS149487 MCLOCCL-AS-AP MOC COMPANY LIMITED, MM 512个 19700101
93 AS149521 FLC-AS-AP Fiber Life Internet, MM 512个 19700101
94 AS149660 HSCL-AS-AP Horizon Sources Company Limited, MM 512个 19700101
95 AS149855 AS-AGBC AGB Communication Co.Ltd, MM 512个 19700101
96 AS150153 AWSCL-AS-AP A W S MYANMAR COMPANY LIMITED, MM 512个 19700101
97 AS150159 BDCL-AS-AP BRAINWAVE DATA COMPANY LIMITED, MM 512个 19700101
98 AS150285 LMHCC-AS-AP Long Mao Home Center Co.ltd., MM 512个 19700101
99 AS150309 ERSTCL-AS-AP E R S TECHNOLOGY, MM 512个 19700101
100 AS150310 TMC-AS-AP Trustforce Myanmar Company Limited trading as Nationet, MM 512个 19700101
101 AS150812 MFGCL-AS-AP Myanmar Fortune Global Company Limited, MM 512个 19700101
102 AS150721 ANCL-AS-AP ARAKHA NET, MM 512个 19700101
103 AS151210 NCL-AS-AP NEXGENET COMPANY LIMITED, MM 512个 19700101
104 AS151482 MKTN-AS-AP MKTN ENGINEERING GROUP COMPANY LIMITED, MM 512个 19700101
105 AS151658 FNS-AS-AP Family Network Solution, MM 512个 19700101
106 AS151802 FSAS-AS-MM FIND SOLUTION AND SERVICES CO., LTD., MM 512个 19700101
107 AS151826 FASTSPEED-AS-AP Fast Speed, MM 512个 19700101
108 AS151965 HATG-AS-AP Hepta Alliance Technology Group, MM 512个 19700101
109 AS152140 YSOMCL-AS-AP YAM Success of Myanmar Co., Ltd., MM 512个 19700101
110 AS152329 AKNCL-AS-AP Aon Kham Network Company Limited, MM 512个 19700101
111 AS152447 MMCL-AS-AP My Mandalay Company Limited, MM 512个 19700101
112 AS133392 YTCL-AS-AP Yatanarpon Teleport Company Limited, MM 256个 20140227
113 AS135149 MTGCL-AS-AP Myanmar Technology Gateway Co., Ltd, MM 256个 19700101
114 AS136508 MCCULLOUGH-AS-AP MACULROB SERVICES PTY. LTD., AU 256个 19700101
115 AS137069 PICME-AS-AP POSCO INTERNATIONAL CORPORATION MYANMAR E&P OFFICE, MM 256个 19700101
116 AS137888 BCM-AS-AP Bee Connect Myanmar Co., Ltd., MM 256个 19700101
117 AS138158 SPAL-AS-AP Serge Pun & Associate Myanmar Ltd., MM 256个 19700101
118 AS138554 TERABITWAVE-AS-AP Terabit Wave Company Limited, MM 256个 19700101
119 AS138933 , 256个 19700101
120 AS139206 PAMEL-AS-AP Pan Asia Majestic Eagle Ltd, MM 256个 19700101
121 AS139704 AS-AGBC AGB Communication Co.Ltd, MM 256个 19700101
122 AS139822 GNE-AS-MM GNE Company Limited, MM 256个 19700101
123 AS141704 GALAXIANET-AS-AP Galaxia @ Net, MM 256个 19700101
124 AS142126 SCSKMYANMARLTD-AS SCSK Myanmar Ltd, MM 256个 19700101
125 AS149846 NEXTHOPCOLTD-AS-AP NEXT HOP COMPANY LIMITED, MM 256个 19700101
126 AS150736 WMCL-AS-AP WEBSATMEDIA MYANMAR COMPANY LIMITED, MM 256个 19700101
127 AS151342 EBECL-AS-AP East Boy Engineering Company Limited, MM 256个 19700101
128 AS151491 IQI-AS-AP Innovative Quality Internet Company Limited, MM 256个 19700101
129 AS151783 ERU-AS-AP EASTERN ROYAL UNICOM ERU TECHNOLOGY COMPANY LIMITED, MM 256个 19700101
130 AS132026 RL-AS-AP Yatanarpon Teleport Company Limited, MM 0个 20110916
131 AS63982 MMTELECOM-MM Myanma Post & Telecommunication, MM 0个 20150518
132 AS134846 ASCL-AS-AP Access Spectrum Co., Ltd., MM 0个 19700101
133 AS135410 ACCCL-AS-AP Australian Cyber Collaboration Centre Ltd, AU 0个 19700101
134 AS135651 STCORP-AS-AP Shwe Taung Development Company Limited, MM 0个 19700101
135 AS136752 GTTCL-MANDALAY-AS-AP Golden TMH Telecom Co. Ltd, MM 0个 19700101
136 AS138617 ORANGE-AS-AP Orange Broadband Co.,LTD, MM 0个 19700101
137 AS139017 APN2-AS-AP MyanmarAPN Company Limited, MM 0个 19700101
138 AS139608 ASTCL-AS-AP AST SYSTEM TECHNOLOGY COMPANY LIMITED, MM 0个 19700101
139 AS139613 HKMTC-AS-AP HONG KONG Megalayer Technology Co.,Limited, HK 0个 19700101
140 AS139658 OML-AS-AP 192, Myanmar Center Tower 1 . Kabar Aye Pagoda RoadBahan TownshipYangon, MM 0个 19700101
141 AS140997 LMCL-AS-AP LNS Myanmar Company Limited, MM 0个 19700101
142 AS142546 AUNGGABAR-AS-AP AUNG GABAR COMPANY LIMITED, MM 0个 19700101
143 AS147005 INC-AS-AP Infinite Networks, MM 0个 19700101
144 AS149029 NMCL-AS-AP NTT MYANMAR CO., LTD., MM 0个 19700101
145 AS149054 HTI-AS-MM HORIZON TELECOM INTERNATIONAL COMPANY LIMITED, MM 0个 19700101
146 AS150456 PTD-AS-AP Posts and Telecommunications Department, MM 0个 19700101
147 AS152459 KBC-AS-AP KNET Broadband, MM 0个 19700101
148 AS152466 TLINKGROUP-AS-AP T-Link Group Company Limited, MM 0个 19700101
149 AS152634 WCCCOMPANYLIMITED-AS-AP Goal Link ISP, MM 0个 19700101
150 AS152663 SMARTSHINECOMPANYLIMITED-AS-MM SMART & SHINE COMPANY LIMITED, MM 0个 19700101

请输入地址
请输入地址